sat.trackr.live / text

‹ back to catalog

STARLINK-37259

NORAD 68972 · 2026-099X

PAYLOAD ACTIVE UNKNOWN

§ Identity

Operator
Country
US
Launch date
2026-05-01
Launch site
AFETR
Launch vehicle
Mass (kg)
RCS (m²)

Purposes: comms

External: N2YO · Heavens-Above · Gunter

§ Orbital elements

Epoch: 2026-05-25T04:00:03.998880Z

Period
92.78 min
Inclination
53.1600°
Eccentricity
0.0000561
Mean motion
15.52104290 rev/d
Perigee alt
410.2 km
Apogee alt
411.0 km
Semi-major
6,788.7 km
B*
-2.7654e-2
RAAN
270.4695°
Arg perigee
99.9011°
Mean anomaly
356.5150°
Rev number
496

§ Raw data

STARLINK-372591 68972U 26099X   26145.16671295 -.01535865  00000+0 -27654-1 0  99922 68972  53.1600 270.4695 0000561  99.9011 356.5150 15.52104290  4966

JSON: /api/v1/satellites/68972 · /tle

For live sub-satellite position, see the globe view (requires WebGL).

§ Visibility from observer

Set your observer location to see the next 7 days of passes ≥ 10°. The values pass through the URL so the page stays shareable.

No JS? Fill the form by hand. The geolocation button needs JavaScript.